RH
98 98 97 96 97 95 96 95 98 100 100 92 66 54 41 54 66 72 90 62 57 43 33 70 80 69 68 59 48 50 71 72 55 42 34 23 22 19 17 19 19 20 22 24 40
100 99 98 99 94 98 98 96 99 100 100 97 69 59 53 65 62 82 63 60 48 28 55 77 65 64 68 58 49 53 68 61 39 33 31 24 22 21 19 19 20 23 25 27 45
98 97 99 98 100 98 98 100 100 100 100 98 70 56 62 66 83 68 50 40 35 59 75 66 64 60 58 54 55 49 64 43 35 30 30 29 26 24 28 27 21 25 26 28 32
98 92 93 94 98 98 100 100 99 97 100 99 61 58 61 80 53 74 46 62 71 78 63 55 53 55 50 48 49 62 49 46 42 37 35 32 29 31 31 32 26 23 24 28 42
94 92 89 98 99 94 98 96 100 99 100 94 54 65 70 82 58 58 46 79 62 71 58 50 44 42 48 38 35 41 40 34 34 35 36 37 38 33 34 32 30 28 26 32 46
95 95 91 97 94 100 98 96 99 99 100 90 66 70 81 61 53 59 56 78 71 76 62 57 51 48 48 46 48 42 40 40 38 37 39 39 38 38 31 34 33 31 29 31 36
90 94 90 94 93 86 100 99 100 97 99 82 74 64 84 62 51 57 60 60 66 66 62 56 54 54 51 57 47 48 58 52 47 42 45 40 49 50 37 32 33 34 31 32 36
80 87 70 72 64 63 92 100 98 100 94 92 80 90 73 66 67 56 54 51 55 62 63 63 65 63 59 55 58 66 67 80 50 47 44 46 66 44 44 39 33 33 34 35 33
73 88 75 72 74 72 92 100 100 94 75 68 86 90 65 63 49 47 46 52 60 60 64 63 62 60 62 78 89 74 92 76 61 41 44 49 60 45 39 35 32 32 34 36 38
73 64 76 71 62 98 99 100 98 85 87 98 92 87 69 47 56 59 60 61 64 66 65 72 76 82 76 89 90 81 82 87 90 58 60 55 57 42 40 44 47 30 33 39 41
70 62 64 64 69 80 100 97 93 96 99 84 72 49 47 54 56 65 69 80 76 67 77 71 95 95 73 74 71 71 76 80 71 57 78 74 61 49 48 55 69 62 53 39 45
73 68 62 57 74 72 99 96 93 99 93 85 64 52 54 59 63 67 77 69 65 72 62 76 98 58 52 79 81 88 83 87 72 66 75 83 61 47 47 68 62 70 60 58 68
73 68 64 62 67 78 84 97 98 98 94 78 70 58 57 63 54 69 74 62 60 67 66 89 59 70 86 92 98 91 79 91 96 90 76 66 64 57 58 54 57 62 73 61 67
76 68 68 66 73 95 100 100 94 90 100 79 67 61 66 64 63 70 74 76 69 64 79 85 61 60 73 99 98 99 72 76 100 95 93 78 98 68 75 71 61 72 78 89 91
74 67 66 74 97 91 98 99 97 86 98 68 62 66 66 66 77 82 78 79 78 74 93 80 84 87 98 94 92 96 73 92 90 93 86 86 97 92 84 83 84 91 96 100 100
96 91 75 80 76 88 74 100 96 99 97 73 68 67 70 64 68 86 85 83 83 85 94 93 71 79 72 66 72 73 81 90 95 99 87 83 87 99 97 98 90 92 99 99 100
99 98 90 88 94 97 80 100 99 99 63 74 68 65 60 72 79 74 75 84 96 100 95 77 86 78 80 93 75 84 96 99 98 98 98 95 76 95 92 91 86 92 100 100 100
100 97 97 93 98 95 98 100 98 69 66 49 59 63 70 64 75 79 79 91 72 72 100 100 98 96 85 91 96 85 97 99 97 97 98 77 95 99 95 95 94 100 99 100 98
94 100 99 92 93 99 94 98 99 77 51 56 60 72 74 61 68 77 77 90 69 84 100 100 100 84 83 72 60 70 93 73 100 66 92 99 100 97 95 93 93 98 100 100 99
99 98 99 88 85 99 97 100 77 52 44 49 61 52 64 60 74 84 83 72 74 77 78 90 100 78 62 70 57 58 46 73 88 97 95 86 92 100 100 98 92 91 96 96 92
83 94 99 89 98 98 100 100 68 52 48 50 45 54 52 60 91 76 87 75 67 79 74 66 85 63 58 63 67 59 57 48 49 62 75 81 96 58 90 87 93 92 90 71 78
85 97 99 97 96 98 100 84 47 50 48 48 43 50 57 51 72 69 78 80 54 54 56 50 65 80 59 48 47 59 45 41 77 61 64 72 77 50 56 56 57 62 66 59 58
96 100 100 97 100 100 88 54 55 48 53 48 49 46 43 54 83 62 60 50 52 53 61 54 62 91 68 59 50 47 41 45 43 64 58 79 80 51 56 56 52 53 54 56 57
88 99 95 98 92 93 57 53 61 55 52 46 47 42 45 51 48 56 62 52 51 52 53 60 59 72 89 74 61 60 49 45 59 79 62 64 69 66 63 60 53 50 52 55 58
83 91 92 99 74 57 43 49 59 57 46 42 43 41 43 51 54 55 50 56 46 47 52 52 72 70 49 50 53 54 53 52 56 43 62 59 60 59 61 62 52 49 51 54 58
82 86 82 67 74 50 48 54 55 57 54 46 49 48 48 56 51 53 43 52 56 41 46 47 75 65 62 46 51 59 56 55 56 51 44 49 55 45 45 49 49 49 51 54 59
68 65 59 65 60 47 50 52 59 51 53 55 50 58 66 59 46 42 41 41 43 50 51 54 74 89 78 48 47 64 56 58 55 55 55 61 51 47 52 55 49 48 51 54 59
Wind_Speed
21 22 25 22 20 19 17 18 20 22 18 15 15 12 8 4 6 6 7 9 8 9 4 2 5 5 5 7 12 10 6 11 16 18 17 21 18 29 26 24 31 27 21 21 6
19 17 17 19 24 20 17 19 23 25 17 16 13 12 5 3 7 10 9 16 13 8 4 5 7 8 7 7 7 8 8 14 14 15 14 20 25 26 26 24 21 19 23 18 11
21 20 19 18 21 19 20 17 23 23 20 19 13 12 5 2 7 5 6 9 10 8 3 3 4 5 12 15 12 8 14 14 20 25 24 24 26 27 21 18 23 15 22 23 22
21 20 21 21 20 17 20 17 23 17 19 18 13 9 4 2 2 7 7 9 10 6 3 3 5 9 8 8 17 12 21 23 24 24 23 18 29 23 25 27 26 23 20 25 16
20 21 23 24 21 20 21 20 22 25 19 15 12 6 5 5 6 9 7 8 6 4 3 3 6 9 11 10 15 14 15 22 23 24 23 27 24 23 30 31 30 22 22 17 10
21 23 24 25 25 24 17 17 26 25 20 14 11 6 7 7 7 5 7 8 7 4 4 4 4 8 10 14 13 18 22 21 24 23 23 21 21 25 30 30 33 29 23 25 20
21 21 23 22 26 16 13 15 27 24 16 10 9 7 7 7 5 6 8 8 6 7 7 7 6 6 8 11 10 14 15 14 16 22 19 23 21 22 25 33 33 30 22 29 21
20 21 23 23 25 18 11 25 20 20 11 9 8 7 5 9 10 9 8 7 7 7 8 9 7 10 15 14 17 14 12 11 11 15 26 21 19 17 32 28 31 31 29 22 26
20 21 21 21 19 15 9 18 16 12 8 9 11 7 3 7 10 9 9 7 5 7 7 8 8 13 13 9 7 6 9 15 17 16 14 18 17 21 33 26 31 31 24 23 19
20 21 20 17 17 12 11 16 14 8 13 10 5 4 8 5 10 8 8 7 6 4 6 9 5 5 4 7 9 5 8 9 11 8 15 16 20 16 16 14 13 27 26 20 19
19 18 20 14 16 10 15 10 13 7 15 9 9 1 15 9 8 6 8 5 4 3 4 8 4 9 13 15 17 14 17 20 17 18 8 15 15 20 13 7 9 9 12 16 22
18 16 18 14 15 13 9 7 5 3 5 17 3 6 7 6 7 9 7 5 7 6 9 5 8 13 15 15 16 16 18 19 16 16 10 9 16 13 9 2 5 10 11 10 10
18 16 14 13 14 11 13 10 2 2 2 7 12 9 5 8 4 13 8 4 4 4 10 8 8 10 12 14 12 16 17 15 12 6 10 7 8 9 4 4 7 7 6 6 4
17 16 13 11 9 4 11 5 5 1 1 8 9 7 8 6 3 8 5 2 1 4 4 8 11 12 11 11 7 10 13 17 10 7 3 8 3 8 4 7 4 5 1 6 4
15 14 12 9 4 3 1 4 7 4 3 9 10 11 10 5 11 3 4 2 2 6 1 4 8 9 8 6 7 6 1 10 5 4 4 8 2 2 4 3 8 3 8 8 8
20 17 12 10 10 5 9 1 12 1 3 3 6 9 8 6 6 6 2 2 4 5 7 11 11 6 4 10 8 5 1 2 1 1 3 1 2 2 3 2 5 4 13 10 9
23 15 17 7 3 5 1 11 1 4 3 5 7 10 10 7 5 3 3 4 2 3 3 5 5 3 4 6 3 7 6 2 4 1 3 2 2 2 3 2 5 5 11 13 17
18 19 17 13 4 9 15 2 3 7 3 4 12 11 5 7 3 4 3 2 9 5 3 3 2 3 2 3 4 2 5 2 3 3 3 6 3 3 3 8 8 13 13 15 18
18 29 20 17 9 9 6 1 5 3 4 9 13 4 3 6 4 4 2 2 2 4 2 3 2 4 11 11 4 3 2 4 3 7 2 4 2 4 5 7 10 13 12 14 19
36 27 18 14 9 11 1 3 1 4 4 13 3 2 6 6 5 4 3 3 2 3 4 0 0 5 4 5 5 4 7 3 2 2 3 1 5 4 4 8 8 9 10 13 20
36 14 12 13 13 6 1 3 3 5 4 4 6 6 2 8 3 4 2 1 3 4 8 6 3 1 5 3 4 3 4 3 2 2 1 3 3 6 10 8 9 10 12 13 17
26 6 13 16 3 1 2 3 4 3 6 4 6 11 4 4 5 2 2 4 3 5 2 1 3 2 0 2 3 4 5 3 3 5 4 5 3 9 10 11 14 13 12 12 13
13 12 17 9 1 2 5 7 9 4 8 4 4 5 2 4 3 6 3 2 3 2 4 5 3 2 1 2 2 4 9 8 2 3 7 3 4 8 10 10 15 15 12 11 10
7 3 2 3 4 5 6 6 4 7 8 6 3 2 3 2 5 5 3 1 1 2 5 4 4 5 3 2 4 6 10 11 5 4 4 5 12 9 8 8 12 14 12 9 8
7 3 4 2 2 2 1 8 10 5 4 5 3 4 4 5 7 5 4 5 3 2 3 3 3 5 4 4 5 6 7 10 10 7 6 11 11 11 10 9 14 14 11 10 8
6 5 4 3 3 1 2 8 10 6 8 8 7 12 12 11 9 5 1 5 4 2 3 3 1 3 3 6 7 6 10 8 8 8 7 10 7 8 16 18 15 12 11 9 5
18 11 4 2 2 6 6 8 7 2 7 12 7 9 8 8 9 7 9 7 4 4 4 3 2 3 1 4 4 3 5 6 4 6 4 4 3 6 6 9 10 11 8 6 4
Wind_Direction
288 283 273 265 275 275 287 288 281 280 285 295 303 301 303 276 280 295 284 244 192 247 193 211 270 266 276 251 238 245 248 251 253 256 273 278 283 283 280 258 258 262 265 282 235
332 324 306 293 267 264 281 280 263 264 270 288 296 295 292 286 284 268 259 243 238 232 181 244 254 248 233 257 237 209 235 245 260 279 278 273 270 276 283 282 255 254 264 268 251
325 323 319 311 302 267 265 267 248 258 263 275 284 285 280 302 298 154 236 225 190 174 180 208 260 273 263 245 249 239 248 275 284 289 288 293 285 290 297 276 272 251 246 246 255
319 319 320 316 314 270 261 250 253 262 261 264 271 276 245 201 255 188 158 136 153 151 161 206 236 246 259 252 226 251 265 276 285 285 287 285 291 297 278 284 293 259 252 248 230
324 319 313 317 318 282 263 238 232 248 241 251 257 245 183 231 249 197 207 168 163 158 205 245 268 277 263 271 279 264 263 270 273 273 275 286 273 281 283 280 286 281 270 260 273
316 320 319 318 319 314 254 248 217 238 237 248 236 208 181 230 158 196 189 179 174 176 208 225 258 296 304 289 286 294 295 297 296 294 293 276 275 275 265 277 276 277 279 258 274
319 316 319 323 326 303 270 220 211 233 234 228 220 178 229 223 157 196 182 181 190 208 231 239 260 271 295 315 308 307 287 283 269 272 273 270 260 256 262 259 272 277 263 267 273
314 319 321 325 330 299 267 197 214 219 202 199 182 152 233 219 198 210 197 190 201 212 231 247 266 287 278 275 283 291 286 284 282 254 253 243 260 254 250 256 255 264 260 261 245
312 315 320 326 338 338 232 197 193 195 164 159 151 176 239 231 214 195 196 204 202 233 245 257 259 260 274 269 275 229 271 264 278 258 245 209 246 248 253 245 236 248 248 260 249
311 310 312 322 329 350 177 164 140 138 127 138 163 197 214 203 167 166 188 190 204 232 266 248 253 253 225 224 244 249 251 276 277 282 288 218 234 263 256 221 253 238 245 242 244
305 306 309 315 316 327 176 153 108 109 189 183 187 130 134 144 162 179 180 151 163 223 224 198 204 223 230 229 244 261 268 273 275 279 292 238 232 243 249 263 4 324 309 240 245
300 301 303 305 300 303 226 157 173 220 199 219 185 161 137 177 166 166 167 157 182 223 219 230 243 239 247 274 258 248 260 269 280 270 256 239 232 244 214 244 330 323 287 293 201
298 294 294 306 299 312 237 223 3 176 10 184 193 197 191 190 199 163 169 177 225 284 283 229 245 185 239 258 262 265 260 266 266 301 239 265 222 227 292 249 292 292 315 286 148
294 286 285 296 303 298 203 264 204 160 286 139 189 201 170 187 124 143 166 143 193 291 317 268 275 269 264 265 244 269 241 248 263 210 202 186 190 200 354 306 279 303 97 46 93
284 269 273 261 259 331 261 16 176 185 216 144 128 148 169 179 141 128 164 105 250 279 307 268 282 268 259 253 223 243 159 161 231 210 149 212 220 101 357 2 9 1 95 103 148
267 251 243 250 239 247 278 111 154 207 204 118 125 165 166 179 131 129 107 138 261 285 226 258 277 294 296 297 287 232 217 228 185 235 179 132 267 88 347 315 326 38 60 79 98
258 234 214 193 177 192 243 148 190 250 207 149 170 167 170 154 125 137 153 189 234 270 247 274 227 314 271 302 229 208 277 219 195 130 73 275 66 80 356 23 286 103 64 76 90
244 209 191 178 163 138 147 97 248 93 110 187 147 149 122 150 74 136 230 267 224 238 281 315 293 325 46 240 326 245 209 286 320 89 96 12 18 13 354 87 87 89 87 93 95
151 172 175 166 154 160 106 186 6 100 151 148 144 124 133 134 113 190 225 244 84 48 298 331 348 273 227 256 292 303 30 258 294 113 101 127 131 124 73 70 73 77 84 91 96
131 125 143 166 161 157 104 274 23 321 198 165 119 194 127 155 159 174 165 339 347 127 172 232 26 269 300 321 234 241 302 11 262 59 66 59 63 58 84 113 98 92 97 90 90
107 88 124 173 156 114 337 21 334 333 70 336 68 114 118 127 203 158 60 265 216 242 220 253 232 237 217 14 357 320 325 278 258 137 101 112 44 105 109 109 103 91 73 72 81
87 77 139 154 107 79 294 205 158 66 52 43 19 61 57 69 50 111 122 228 292 267 298 72 289 16 9 159 248 274 317 339 63 339 19 90 59 89 97 99 97 93 88 80 77
80 76 137 162 94 253 248 107 46 55 26 35 65 28 330 116 103 130 135 333 332 337 1 348 352 319 159 290 315 10 6 360 14 14 13 108 134 98 91 97 109 108 98 91 88
89 103 119 359 101 243 135 100 112 44 57 59 77 213 180 101 118 131 127 24 329 17 297 301 34 52 97 166 272 9 15 19 50 50 76 57 125 126 136 135 124 126 129 137 124
65 88 160 170 207 197 205 82 68 72 82 8 63 27 5 97 94 96 143 197 158 235 251 38 69 29 64 80 46 34 31 23 31 20 77 157 146 163 160 155 154 146 146 138 119
115 138 169 89 329 186 13 63 77 46 2 63 62 55 48 45 52 53 8 4 27 12 24 359 90 31 39 20 76 66 21 30 22 6 71 90 102 142 145 145 141 154 157 140 132
111 126 124 192 227 94 60 49 51 2 30 30 353 85 59 15 27 64 81 84 76 15 22 39 121 31 339 352 338 359 8 16 64 35 348 69 23 116 110 113 155 157 160 157 168